Location: T�bingen+AIT
(48.5342°N, 9.0700°E)
Time: 22:28:30
(UTC+01:00)

Cosmos 2181 Rocket - Pass Details

Date: 14 September 2017
Orbit: 952 x 1015 km, 82.9° (Epoch: 18 November)

Event Time Altitude Azimuth Distance (km) Brightness Sun altitude
Rises 20:49:01 0° 351° (N) 3,717 7.5 -12.2°
Reaches altitude 10° 20:51:34 10° 352° (N) 2,755 6.7 -12.6°
Maximum altitude 20:57:54 81° 80° (E) 992 4.0 -13.6°
Drops below altitude 10° 21:04:05 10° 169° (SSE) 2,694 6.0 -14.6°
Sets 21:06:33 0° 170° (S) 3,629 6.7 -15.0°
